• In Hungary
  • List of Countries
  • For 7 days
  • Water Temperature
  • Satellite Maps
  • Weather Map
  • News
  • Weather Widgets
  • user-avatar
    Login

    Hourly Weather Muya

    Today, 23 June, Saturday

    Time Temperature Precipitation Wind Pressure Humidity
    00:00 +19°C° 0 mm 1 mps 708 mmHg 72%
    01:00 +18°C° 0 mm 1 mps 708 mmHg 74%
    02:00 +18°C° 0 mm 1 mps 708 mmHg 78%
    03:00 +18°C° 0 mm 1 mps 709 mmHg 78%
    04:00 +18°C° 0 mm 1 mps 709 mmHg 79%
    05:00 +16°C° 0 mm 0 mps 709 mmHg 79%
    06:00 +19°C° 0 mm 1 mps 709 mmHg 72%
    07:00 +21°C° 0 mm 1 mps 709 mmHg 66%
    08:00 +22°C° 0 mm 1 mps 709 mmHg 58%
    09:00 +23°C° 0.1 mm 1 mps 709 mmHg 55%
    10:00 +24°C° 0.1 mm 1 mps 709 mmHg 51%
    11:00 +25°C° 0.1 mm 1 mps 709 mmHg 47%
    12:00 +26°C° 0.2 mm 1 mps 709 mmHg 46%
    13:00 +26°C° 0.2 mm 1 mps 708 mmHg 45%
    14:00 +24°C° 0 mm 1 mps 709 mmHg 51%
    15:00 +24°C° 0.3 mm 1 mps 709 mmHg 53%
    16:00 +24°C° 0.3 mm 1 mps 709 mmHg 55%
    17:00 +23°C° 0.3 mm 1 mps 709 mmHg 57%
    18:00 +22°C° 0.2 mm 1 mps 709 mmHg 63%
    19:00 +21°C° 0.2 mm 1 mps 709 mmHg 69%
    20:00 +20°C° 0.2 mm 1 mps 708 mmHg 76%
    21:00 +20°C° 0.3 mm 1 mps 708 mmHg 77%
    22:00 +19°C° 0.3 mm 1 mps 708 mmHg 78%
    23:00 +18°C° 0.3 mm 1 mps 708 mmHg 79%

    Tomorrow, 24 June, Sunday

    Time Temperature Precipitation Wind Pressure Humidity
    00:00 +18°C° 0.8 mm 1 mps 708 mmHg 79%
    01:00 +17°C° 0.8 mm 2 mps 708 mmHg 79%
    02:00 +17°C° 0.8 mm 2 mps 708 mmHg 79%
    03:00 +17°C° 0.9 mm 2 mps 708 mmHg 82%
    04:00 +17°C° 0.9 mm 2 mps 708 mmHg 86%
    05:00 +16°C° 0.9 mm 2 mps 708 mmHg 89%
    06:00 +17°C° 0.2 mm 2 mps 708 mmHg 84%
    07:00 +18°C° 0.2 mm 2 mps 709 mmHg 78%
    08:00 +20°C° 0.2 mm 1 mps 709 mmHg 73%
    09:00 +19°C° 0.7 mm 2 mps 709 mmHg 74%
    10:00 +19°C° 0.7 mm 2 mps 709 mmHg 75%
    11:00 +18°C° 0.7 mm 2 mps 709 mmHg 76%
    12:00 +18°C° 0.9 mm 2 mps 709 mmHg 78%
    13:00 +17°C° 0.9 mm 2 mps 709 mmHg 79%
    14:00 +18°C° 0.9 mm 1 mps 709 mmHg 81%
    15:00 +18°C° 0.5 mm 1 mps 709 mmHg 79%
    16:00 +18°C° 0.5 mm 1 mps 709 mmHg 76%
    17:00 +19°C° 0.5 mm 1 mps 709 mmHg 74%
    18:00 +18°C° 0.5 mm 1 mps 709 mmHg 79%
    19:00 +16°C° 0.5 mm 1 mps 709 mmHg 83%
    20:00 +15°C° 0.5 mm 0 mps 709 mmHg 87%
    21:00 +15°C° 0.4 mm 1 mps 709 mmHg 89%
    22:00 +15°C° 0.4 mm 1 mps 709 mmHg 90%
    23:00 +14°C° 0.4 mm 1 mps 709 mmHg 92%

    Day after tomorrow, 25 June, Monday

    Time Temperature Precipitation Wind Pressure Humidity
    00:00 +14°C° 0.2 mm 1 mps 709 mmHg 91%
    01:00 +14°C° 0.2 mm 1 mps 709 mmHg 91%
    02:00 +14°C° 0.2 mm 1 mps 709 mmHg 91%
    03:00 +14°C° 0.2 mm 1 mps 709 mmHg 90%
    04:00 +14°C° 0.2 mm 1 mps 709 mmHg 89%
    05:00 +15°C° 0.2 mm 1 mps 709 mmHg 88%
    06:00 +16°C° 0.2 mm 1 mps 709 mmHg 84%
    07:00 +16°C° 0.2 mm 1 mps 709 mmHg 80%
    08:00 +18°C° 0.2 mm 1 mps 709 mmHg 76%
    09:00 +19°C° 0.2 mm 1 mps 709 mmHg 73%
    10:00 +19°C° 0.2 mm 2 mps 709 mmHg 69%
    11:00 +20°C° 0.2 mm 2 mps 709 mmHg 65%
    12:00 +21°C° 0.3 mm 2 mps 709 mmHg 64%
    13:00 +22°C° 0.3 mm 1 mps 709 mmHg 62%
    14:00 +23°C° 0.3 mm 1 mps 709 mmHg 61%
    15:00 +23°C° 0.3 mm 2 mps 709 mmHg 59%
    16:00 +23°C° 0.3 mm 2 mps 709 mmHg 58%
    17:00 +24°C° 0.3 mm 2 mps 709 mmHg 56%
    18:00 +23°C° 0.3 mm 2 mps 709 mmHg 61%
    19:00 +21°C° 0.3 mm 2 mps 709 mmHg 66%
    20:00 +20°C° 0.3 mm 2 mps 709 mmHg 71%
    21:00 +19°C° 0.4 mm 2 mps 709 mmHg 73%
    22:00 +18°C° 0.4 mm 2 mps 709 mmHg 76%
    23:00 +17°C° 0.4 mm 2 mps 709 mmHg 79%

    26 June, Tuesday

    Time Temperature Precipitation Wind Pressure Humidity
    00:00 +16°C° 0.2 mm 2 mps 709 mmHg 81%
    01:00 +15°C° 0.2 mm 2 mps 709 mmHg 83%
    02:00 +15°C° 0.2 mm 2 mps 709 mmHg 84%
    03:00 +15°C° 0 mm 2 mps 709 mmHg 84%
    04:00 +15°C° 0 mm 2 mps 709 mmHg 84%
    05:00 +15°C° 0 mm 2 mps 710 mmHg 84%
    06:00 +17°C° 0 mm 2 mps 710 mmHg 76%
    07:00 +19°C° 0 mm 3 mps 710 mmHg 68%
    08:00 +21°C° 0 mm 3 mps 710 mmHg 60%
    09:00 +22°C° 0.1 mm 3 mps 710 mmHg 55%
    10:00 +25°C° 0.1 mm 4 mps 710 mmHg 50%
    11:00 +26°C° 0.1 mm 4 mps 710 mmHg 44%
    12:00 +26°C° 0.1 mm 5 mps 710 mmHg 43%
    13:00 +27°C° 0.1 mm 5 mps 710 mmHg 42%
    14:00 +27°C° 0.1 mm 5 mps 710 mmHg 40%
    15:00 +27°C° 0.1 mm 5 mps 710 mmHg 40%
    16:00 +27°C° 0.1 mm 5 mps 710 mmHg 41%
    17:00 +27°C° 0.1 mm 5 mps 710 mmHg 41%
    18:00 +26°C° 0 mm 4 mps 710 mmHg 47%
    19:00 +23°C° 0 mm 4 mps 710 mmHg 52%
    20:00 +22°C° 0 mm 3 mps 710 mmHg 58%
    21:00 +20°C° 0 mm 2 mps 710 mmHg 62%
    22:00 +19°C° 0 mm 2 mps 710 mmHg 66%
    23:00 +17°C° 0 mm 2 mps 710 mmHg 70%

    27 June, Wednesday

    Time Temperature Precipitation Wind Pressure Humidity
    00:00 +17°C° 0 mm 2 mps 710 mmHg 72%
    01:00 +16°C° 0 mm 1 mps 710 mmHg 73%
    02:00 +16°C° 0 mm 1 mps 710 mmHg 75%
    03:00 +16°C° 0 mm 1 mps 710 mmHg 74%
    04:00 +18°C° 0 mm 1 mps 710 mmHg 73%
    05:00 +18°C° 0 mm 1 mps 710 mmHg 73%
    06:00 +20°C° 0 mm 1 mps 710 mmHg 66%
    07:00 +21°C° 0 mm 2 mps 710 mmHg 60%
    08:00 +24°C° 0 mm 2 mps 710 mmHg 53%
    09:00 +25°C° 0.1 mm 3 mps 710 mmHg 50%
    10:00 +27°C° 0.1 mm 3 mps 709 mmHg 47%
    11:00 +28°C° 0.1 mm 4 mps 709 mmHg 44%
    12:00 +28°C° 0.3 mm 5 mps 709 mmHg 44%
    13:00 +28°C° 0.3 mm 5 mps 708 mmHg 44%
    14:00 +28°C° 0.3 mm 6 mps 708 mmHg 44%
    15:00 +27°C° 0.5 mm 5 mps 708 mmHg 50%
    16:00 +26°C° 0.5 mm 5 mps 707 mmHg 55%
    17:00 +23°C° 0.5 mm 4 mps 707 mmHg 60%
    18:00 +24°C° 0.3 mm 3 mps 707 mmHg 63%
    19:00 +23°C° 0.3 mm 2 mps 707 mmHg 65%
    20:00 +23°C° 0.3 mm 1 mps 707 mmHg 67%
    21:00 +21°C° 0.2 mm 1 mps 707 mmHg 71%
    22:00 +20°C° 0.2 mm 1 mps 706 mmHg 74%
    23:00 +18°C° 0.2 mm 1 mps 706 mmHg 77%

    28 June, Thursday

    Time Temperature Precipitation Wind Pressure Humidity
    00:00 +18°C° 0 mm 1 mps 706 mmHg 78%
    01:00 +16°C° 0 mm 1 mps 706 mmHg 79%
    02:00 +16°C° 0 mm 1 mps 706 mmHg 80%
    03:00 +16°C° 0 mm 1 mps 706 mmHg 80%
    04:00 +16°C° 0 mm 1 mps 706 mmHg 79%
    05:00 +18°C° 0 mm 1 mps 706 mmHg 78%
    06:00 +19°C° 0.1 mm 2 mps 706 mmHg 70%
    07:00 +21°C° 0.1 mm 2 mps 706 mmHg 62%
    08:00 +24°C° 0.1 mm 3 mps 706 mmHg 54%
    09:00 +24°C° 0.1 mm 3 mps 706 mmHg 50%
    10:00 +25°C° 0.1 mm 4 mps 706 mmHg 47%
    11:00 +26°C° 0.1 mm 4 mps 706 mmHg 44%
    12:00 +26°C° 0.1 mm 4 mps 706 mmHg 43%
    13:00 +27°C° 0.1 mm 4 mps 705 mmHg 42%
    14:00 +27°C° 0.1 mm 4 mps 705 mmHg 41%
    15:00 +27°C° 0 mm 4 mps 705 mmHg 41%
    16:00 +27°C° 0 mm 4 mps 705 mmHg 41%
    17:00 +27°C° 0 mm 4 mps 705 mmHg 42%
    18:00 +26°C° 0 mm 3 mps 705 mmHg 48%
    19:00 +25°C° 0 mm 3 mps 705 mmHg 53%
    20:00 +23°C° 0 mm 2 mps 705 mmHg 59%
    21:00 +21°C° 0 mm 2 mps 704 mmHg 63%
    22:00 +20°C° 0 mm 1 mps 704 mmHg 68%
    23:00 +18°C° 0 mm 1 mps 704 mmHg 72%
    Show more